Tracking 30970 objects as of 3-Jul-2025
HD Live streaming from Space Station
objects crossing your sky now

STARLINK-11213

Track STARLINK-11213 now!
10-day predictions
STARLINK-11213 is classified as:


NORAD ID: 60309
Int'l Code: 2024-133J
Perigee: 366.0 km
Apogee: 367.7 km
Inclination: 53.2 °
Period: 91.7 minutes
Semi major axis: 6737 km
RCS: Unknown
Launch date: July 28, 2024
Source: United States (US)
Launch site: AIR FORCE WESTERN TEST RANGE (AFWTR)
Your satellite tracking list
Your tracking list is empty




NASA's NSSDC Master Catalog

Two Line Element Set (TLE):
1 60309U 24133J   25183.57319621 -.00001036  00000-0 -36904-5 0  9993
2 60309  53.1595 298.9719 0001237  65.0786 295.0360 15.69704211 54345
Source of the keplerian elements: AFSPC